RH
80 81 80 83 86 84 90 82 82 78 78 77 80 75 77 79 84 84 82 84 86 83 85 87 84 81 78 73 67 74 68 66
86 90 90 88 82 82 82 80 80 83 70 73 72 72 88 87 89 80 88 88 87 89 90 88 85 75 75 75 74 73 79 70
89 90 90 92 91 87 83 82 83 84 74 66 69 77 85 73 82 84 81 88 90 89 92 86 86 80 81 82 78 86 79 78
88 86 88 90 89 87 74 75 74 73 77 73 82 84 81 80 83 82 86 85 84 86 89 89 85 88 84 87 82 79 83 84
81 80 85 86 80 75 65 63 61 68 76 62 71 61 68 63 75 76 84 87 85 84 87 92 93 91 91 90 86 87 86 87
79 73 74 74 65 64 60 60 59 61 68 61 70 71 73 79 80 78 81 91 87 85 91 94 95 91 89 94 95 93 92 94
70 64 63 58 54 56 59 60 59 61 68 65 66 65 76 78 75 76 88 92 90 89 89 91 93 95 94 96 95 94 96 97
69 64 63 59 58 56 60 63 62 62 66 66 66 64 81 67 69 69 75 86 92 91 93 95 97 96 97 96 95 97 98 97
64 62 59 60 60 60 61 60 61 60 63 62 64 68 62 73 62 66 72 75 82 86 91 95 96 96 96 97 98 98 98 98
54 54 55 55 57 60 63 61 58 58 59 59 59 67 70 68 71 72 79 89 86 94 95 96 97 96 95 96 98 98 98 98
50 51 52 52 54 56 58 58 56 55 55 57 57 58 77 75 84 92 92 96 97 97 98 97 97 97 97 97 98 98 97 98
44 48 50 51 48 51 55 55 54 58 56 58 59 63 64 82 91 97 98 98 98 98 98 97 97 98 98 97 97 98 97 97
41 42 47 50 51 51 50 54 54 64 85 89 91 90 91 92 93 98 97 98 98 98 97 98 98 97 97 97 98 95 94 94
44 50 49 42 52 51 53 57 72 85 94 96 97 97 96 98 98 97 95 92 96 98 98 98 98 97 98 96 94 93 90 88
41 48 68 88 88 73 64 71 78 79 78 98 99 99 98 98 98 99 99 98 98 98 98 98 98 97 95 93 91 91 90 88
43 51 95 98 95 96 98 98 98 95 98 98 99 99 99 98 98 98 99 98 98 98 98 98 96 94 92 93 91 90 89 92
40 61 90 96 93 96 98 98 98 96 98 98 98 98 98 98 98 98 98 98 98 97 98 97 97 92 97 94 90 91 90 86
68 70 83 96 93 95 97 97 95 96 97 96 96 96 97 97 94 95 96 97 97 98 97 95 95 94 95 95 94 90 90 92
74 85 96 97 94 94 94 92 92 94 94 93 93 93 94 92 91 93 96 96 97 97 96 93 91 87 96 96 99 95 91 87
Wind_Speed
11 12 11 11 11 11 8 9 11 11 6 3 2 2 3 5 5 5 8 7 7 6 5 6 6 5 5 4 5 3 4 5
8 9 8 10 11 11 10 13 12 8 9 6 4 5 2 2 4 7 8 7 8 6 5 6 5 7 8 7 4 6 4 3
11 10 10 12 13 10 9 12 12 8 8 7 4 4 3 5 4 6 8 7 7 7 7 8 7 5 6 6 6 3 2 4
15 16 14 13 14 13 12 14 13 11 8 5 3 3 3 4 4 5 7 8 9 9 9 7 8 5 5 4 5 6 4 2
15 17 16 16 15 13 13 15 14 12 9 10 8 9 8 7 4 4 6 9 10 10 9 8 7 6 6 7 6 5 5 4
20 19 19 18 16 17 16 16 15 15 12 12 9 8 7 4 3 6 8 8 10 11 10 9 8 7 8 8 5 6 4 4
18 19 17 17 16 17 15 16 16 15 13 15 15 15 8 6 8 7 6 6 8 12 11 10 9 7 7 6 6 8 6 4
19 19 19 19 20 21 18 19 19 17 18 17 16 14 10 13 11 11 10 9 8 10 11 9 7 8 6 6 7 6 7 6
22 24 22 22 24 23 22 22 20 19 19 19 15 14 11 11 12 11 9 10 10 12 11 9 8 9 7 6 5 4 6 5
24 23 22 23 22 25 25 24 22 22 21 17 17 15 16 13 15 9 10 8 7 5 7 8 9 10 10 9 6 7 7 6
22 21 22 21 22 22 22 22 23 24 21 18 16 17 14 13 7 7 6 4 6 7 5 6 6 7 8 8 7 7 8 6
15 18 19 21 20 18 21 20 21 19 19 17 15 15 16 12 8 7 6 4 3 7 12 10 10 9 9 9 7 8 9 8
14 17 17 18 20 20 20 20 20 9 4 3 3 3 5 6 9 9 10 8 9 10 10 9 9 10 8 10 10 9 9 9
8 8 12 16 16 16 17 17 12 11 10 7 8 12 12 11 15 17 14 10 8 9 10 10 10 9 8 7 9 10 9 7
8 7 6 6 6 9 13 12 14 13 9 10 7 6 6 7 11 10 7 7 10 9 7 8 8 9 9 9 8 9 7 7
8 8 7 6 7 6 5 7 6 7 9 9 8 6 7 8 7 9 8 8 8 8 9 8 8 9 7 10 9 8 8 6
8 9 10 8 10 6 6 8 9 11 11 10 9 9 8 8 9 9 10 9 8 9 9 10 9 6 13 12 10 7 6 5
10 14 14 11 12 11 9 9 10 11 11 10 9 9 9 7 9 10 9 9 9 8 8 9 8 8 12 12 10 5 5 4
10 9 10 12 11 9 9 9 9 10 11 11 10 9 10 9 9 9 9 8 9 9 8 8 9 7 10 11 10 6 6 6
Wind_Direction
163 169 178 169 171 177 174 170 171 177 175 151 147 139 167 151 156 163 183 186 177 167 154 154 166 157 170 153 149 174 165 180
161 169 170 167 182 183 184 175 182 173 181 184 186 185 171 176 178 181 182 184 177 163 167 162 173 173 179 175 155 182 202 152
175 179 181 176 183 189 187 190 187 187 193 186 180 173 164 191 188 202 194 190 174 175 175 185 180 171 177 176 161 140 176 151
179 180 187 182 191 194 193 191 188 193 203 168 160 139 175 186 186 202 205 195 194 188 189 183 179 171 182 173 170 171 172 152
184 183 184 190 191 192 198 193 189 198 201 193 193 206 204 203 182 188 201 204 204 200 192 182 173 180 182 187 184 174 147 182
185 189 187 190 183 187 194 195 195 201 203 200 199 204 206 182 174 193 209 207 207 201 195 183 183 190 201 194 162 168 181 154
193 190 184 187 187 188 195 201 207 206 205 209 207 206 196 196 202 202 201 202 206 206 199 198 197 190 193 193 171 177 176 140
189 189 191 192 192 193 196 202 208 207 207 206 210 211 203 212 205 208 200 201 207 204 195 190 185 192 188 168 169 164 161 173
191 194 193 195 198 198 199 202 206 205 206 210 208 211 218 219 219 217 217 210 210 200 198 187 173 179 152 155 144 131 144 142
196 198 198 197 198 202 200 201 205 206 209 211 215 216 219 217 216 208 204 203 202 171 175 182 180 167 162 153 149 153 157 152
200 199 200 201 201 203 203 208 206 206 205 208 214 216 211 217 195 193 197 131 125 140 132 157 169 170 149 145 145 148 155 165
196 203 204 206 206 205 208 209 213 210 211 211 221 226 222 201 188 148 119 97 174 162 192 180 178 178 163 150 153 158 158 156
190 197 198 203 203 206 207 210 214 213 161 115 181 198 261 216 173 145 140 187 184 195 187 179 168 165 164 156 156 162 161 161
163 160 200 208 205 205 204 208 187 160 141 166 185 172 164 160 162 174 192 191 176 167 168 161 156 152 147 149 156 155 156 154
180 141 136 138 145 172 185 191 173 178 177 167 157 162 175 191 178 165 148 147 153 142 148 138 133 134 139 146 154 142 143 140
180 146 138 126 129 129 115 97 97 133 121 119 124 121 105 114 112 108 114 117 117 122 117 118 130 138 152 147 142 144 141 148
161 146 145 150 150 135 121 105 108 118 121 125 121 116 123 122 119 110 111 116 118 124 131 137 139 141 136 129 132 139 144 153
163 169 161 153 157 147 141 129 124 122 123 125 127 129 124 124 123 121 124 126 128 130 129 132 126 123 133 131 124 114 115 107
171 149 129 137 140 132 127 130 126 128 131 137 139 141 137 137 132 126 125 130 135 131 125 120 122 133 138 133 118 113 98 88